Location: Del Amo
(33.8464°N, 118.2104°W)
Time: 07:39:12
(UTC+00:00)

Altair - All Passes

Search period start: 19 September 2024 00:00
Search period end: 29 September 2024 00:00
Orbit: 1501 x 1682 km, 47.2° (Epoch: 18 September)

Date Brightness Start Highest point End Pass type
(mag) Time Alt. Az. Time Alt. Az. Time Alt. Az.
19 Sep - 05:51:05 10° SE 05:54:23 12° ESE 05:57:42 10° E night (unlit)
19 Sep - 07:48:11 10° SSW 07:57:37 58° SE 08:07:24 10° ENE visible
19 Sep - 09:52:54 10° WSW 10:02:36 57° NNW 10:12:36 10° NE visible
19 Sep - 12:00:12 10° WNW 12:09:25 38° N 12:18:41 10° ENE visible
19 Sep - 14:06:26 10° NW 14:16:20 53° NNE 14:26:07 10° E daylight
19 Sep - 16:11:34 10° WNW 16:21:35 66° SW 16:31:21 10° SE daylight
19 Sep - 18:19:42 10° W 18:25:02 16° WSW 18:30:18 10° SSW daylight
20 Sep - 07:23:09 10° SSW 07:32:26 53° SE 07:42:04 10° ENE visible
20 Sep - 09:27:33 10° WSW 09:37:16 60° NNW 09:47:18 10° NE visible
20 Sep - 11:34:47 10° WNW 11:43:58 38° N 11:53:16 10° ENE visible
20 Sep - 13:41:09 10° NW 13:50:58 50° NNE 14:00:42 10° E daylight
20 Sep - 15:46:16 10° WNW 15:56:22 71° SW 16:06:15 10° SE daylight
20 Sep - 17:53:47 10° W 17:59:56 18° WSW 18:06:00 10° SSW daylight
21 Sep - 06:58:10 10° SSW 07:07:16 48° SE 07:16:42 10° ENE visible
21 Sep - 09:02:13 10° WSW 09:11:57 63° NNW 09:22:01 10° NE visible
21 Sep - 11:09:21 10° WNW 11:18:33 38° N 11:27:51 10° ENE visible
21 Sep - 13:15:51 10° NW 13:25:36 48° NNE 13:35:17 10° E visible
21 Sep - 15:20:58 10° NW 15:31:08 77° SW 15:41:06 10° SE daylight
21 Sep - 17:28:00 10° W 17:34:49 21° SW 17:41:32 10° SSW daylight
22 Sep - 06:33:13 10° SSW 06:42:06 44° SE 06:51:20 10° ENE visible
22 Sep - 08:36:54 10° WSW 08:46:39 67° NNW 08:56:44 10° NE visible
22 Sep - 10:43:56 10° WNW 10:53:07 39° N 11:02:27 10° ENE visible
22 Sep - 12:50:32 10° NW 13:00:13 46° NNE 13:09:51 10° E visible
22 Sep - 14:55:41 10° NW 15:05:54 82° SW 15:15:55 10° SE daylight
22 Sep - 17:02:20 10° WNW 17:09:42 23° SW 17:16:58 10° S daylight
23 Sep - 06:08:17 10° SSW 06:16:58 40° SE 06:25:55 10° ENE night (unlit)
23 Sep - 08:11:36 10° WSW 08:21:21 71° NNW 08:31:27 10° NE visible
23 Sep - 10:18:30 10° WNW 10:27:42 39° N 10:37:05 10° ENE visible
23 Sep - 12:25:14 10° NW 12:34:49 45° NNE 12:44:25 10° E visible
23 Sep - 14:30:24 10° NW 14:40:39 88° SW 14:50:43 10° SE daylight
23 Sep - 16:36:44 10° WNW 16:44:34 26° SW 16:52:18 10° S daylight
24 Sep - 05:43:25 10° S 05:51:49 36° SE 06:00:30 10° ENE night (unlit)
24 Sep - 07:46:20 10° WSW 07:56:04 76° NNW 08:06:11 10° NE visible
24 Sep - 09:53:04 10° WNW 10:02:17 40° N 10:11:42 10° ENE visible
24 Sep - 11:59:54 10° NW 12:09:25 43° NNE 12:18:57 10° E visible
24 Sep - 14:05:08 10° NW 14:15:23 87° NE 14:25:29 10° SE daylight
24 Sep - 16:11:11 10° WNW 16:19:26 29° SW 16:27:34 10° S daylight
25 Sep - 05:18:36 10° S 05:26:42 32° SE 05:35:02 10° ENE night (unlit)
25 Sep - 07:21:06 10° WSW 07:30:48 80° NW 07:40:54 10° NE visible
25 Sep - 09:27:39 10° W 09:36:52 41° NNW 09:46:20 10° NE visible
25 Sep - 11:34:35 10° NW 11:44:01 42° NNE 11:53:30 10° E visible
25 Sep - 13:39:52 10° NW 13:50:06 82° NE 14:00:14 10° ESE daylight
25 Sep - 15:45:42 10° WNW 15:54:18 33° SW 16:02:47 10° S daylight
26 Sep - 04:53:49 10° S 05:01:34 29° SE 05:09:33 10° ENE night (unlit)
26 Sep - 06:55:52 10° SW 07:05:32 86° NW 07:15:37 10° NE visible
26 Sep - 09:02:14 10° W 09:11:28 42° NNW 09:20:58 10° NE visible
26 Sep - 11:09:15 10° WNW 11:18:36 41° NNE 11:28:02 10° E visible
26 Sep - 13:14:36 10° NW 13:24:49 77° NE 13:34:56 10° ESE visible
26 Sep - 15:20:15 10° WNW 15:29:08 36° SW 15:37:56 10° S daylight
27 Sep - 04:29:07 10° S 04:36:28 26° SE 04:44:01 10° ENE visible
27 Sep - 06:30:40 10° SW 06:40:18 89° SE 06:50:20 10° NE visible
27 Sep - 08:36:50 10° W 08:46:04 44° NNW 08:55:37 10° NE visible
27 Sep - 10:43:55 10° WNW 10:53:10 40° N 11:02:33 10° ENE visible
27 Sep - 12:49:21 10° NW 12:59:31 72° NNE 13:09:38 10° ESE visible
27 Sep - 14:54:49 10° WNW 15:03:59 40° SW 15:13:01 10° SSE daylight
28 Sep - 04:04:29 10° S 04:11:22 23° SE 04:18:25 10° ENE visible
28 Sep - 06:05:29 10° SW 06:15:03 83° SE 06:25:04 10° NE night (unlit)
28 Sep - 08:11:26 10° W 08:20:42 45° NNW 08:30:17 10° NE visible
28 Sep - 10:18:34 10° WNW 10:27:46 39° N 10:37:06 10° ENE visible
28 Sep - 12:24:05 10° NW 12:34:13 68° NNE 12:44:19 10° ESE visible
28 Sep - 14:29:26 10° WNW 14:38:48 44° SW 14:48:05 10° SSE daylight
